Orbcomm
NORAD ID: 25982
Int'l Code: 1999-065C
Perigee: 793.9 km
Apogee: 801.8 km
Inclination: 45.0 °
Period: 100.7 minutes
Semi major axis: 7168 km
Launch date: December 4, 1999
Source: ORBCOMM (ORB)
Two Line Element Set (TLE):
1 25982U 99065C 13142.81947753 .00000410 00000-0 20997-3 0 7128
2 25982 045.0214 281.9884 0005490 097.2826 057.5810 14.30299115702714
Source: AFSPC
NASA's NSSDC Master Catalog entry for ORBCOMM FM 32